, CA

(GMT )
Vandenberg AFB

Weather History for KVBG - January, 2013

Change the Weather History Date:

Thursday, January 10, 2013

  Actual Average Record
Temperature  
Mean Temperature 46 °F -  
Max Temperature 51 °F 59 °F 71 °F (2002)
Min Temperature 39 °F 43 °F 33 °F (2011)
Degree Days  
Heating Degree Days 19    
Moisture  
Dew Point 35 °F    
Average Humidity 65    
Maximum Humidity 82    
Minimum Humidity 54    
Precipitation  
Precipitation 0.00 in - - ()
Sea Level Pressure  
Sea Level Pressure 30.09 in    
Wind  
Wind Speed 18 mph (NNW)    
Max Wind Speed 29 mph    
Max Gust Speed 36 mph    
Visibility 10 miles    
Events      
Averages and records for this station are not official NWS values.
T = Trace of Precipitation, MM = Missing Value Source: NWS Daily Summary

Daily Weather History Graph

Daily Weather History Graph

Search for Another Location

Airport or City:

Trip Planner

Search our weather history database for the weather conditions in past years. The results will help you decide how hot, cold, wet, or windy it might be!

Date:

Astronomy

Jan. 10, 2013 Rise Set
Actual Time 7:10 AM PST 5:10 PM PST
Civil Twilight 6:42 AM PST 5:37 PM PST
Nautical Twilight 6:11 AM PST 6:09 PM PST
Astronomical Twilight 5:40 AM PST 6:39 PM PST
Moon 5:55 AM PST (1/10) 4:23 PM PST (1/10)
Length of Visible Light 10h 55m
Length of Day
10h 00m
Waning Crescent, 1% of the Moon is Illuminated
Jan 10
Waning Crescent
Jan 11
New
Jan 18
First Quarter
Jan 26
Full
Feb 3
Last Quarter

Hourly Weather History & Observations

Time (PST) Temp. Windchill Dew Point Humidity Pressure Visibility Wind Dir Wind Speed Gust Speed Precip Events Conditions
12:14 AM 48.2 °F - 42.8 °F 82% 30.08 in 10.0 mi NNW 19.6 mph - N/A   Overcast
12:55 AM 48.9 °F - 39.9 °F 71% 30.06 in 10.0 mi NNW 21.9 mph - N/A   Overcast
1:55 AM 48.0 °F - 37.0 °F 66% 30.06 in 10.0 mi NW 19.6 mph 27.6 mph N/A   Partly Cloudy
2:55 AM 46.9 °F - 37.0 °F 68% 30.06 in 10.0 mi NNW 17.3 mph 28.8 mph N/A   Partly Cloudy
3:55 AM 42.1 °F 37.7 °F 37.0 °F 82% 30.05 in 10.0 mi North 6.9 mph - N/A   Scattered Clouds
4:55 AM 41.0 °F 35.8 °F 35.1 °F 79% 30.05 in 10.0 mi North 8.1 mph - N/A   Clear
5:55 AM 42.1 °F 35.7 °F 35.1 °F 76% 30.06 in 10.0 mi NNE 11.5 mph - N/A   Clear
6:55 AM 41.0 °F 35.2 °F 33.1 °F 73% 30.08 in 10.0 mi NNE 9.2 mph - N/A   Scattered Clouds
7:55 AM 42.1 °F 36.6 °F 33.1 °F 70% 30.09 in 10.0 mi NNE 9.2 mph - N/A   Scattered Clouds
8:55 AM 46.0 °F 41.9 °F 34.0 °F 63% 30.11 in 10.0 mi North 8.1 mph - N/A   Scattered Clouds
9:55 AM 50.0 °F - 36.0 °F 59% 30.10 in 10.0 mi NNW 17.3 mph 27.6 mph N/A   Scattered Clouds
10:55 AM 51.1 °F - 36.0 °F 56% 30.09 in 10.0 mi NNW 21.9 mph 27.6 mph N/A   Mostly Cloudy
11:55 AM 50.0 °F - 35.1 °F 57% 30.07 in 10.0 mi NW 24.2 mph 33.4 mph N/A   Mostly Cloudy
12:55 PM 51.1 °F - 36.0 °F 56% 30.05 in 10.0 mi NW 25.3 mph 34.5 mph N/A   Mostly Cloudy
1:55 PM 51.1 °F - 37.0 °F 59% 30.05 in 10.0 mi NW 24.2 mph 33.4 mph N/A   Scattered Clouds
2:55 PM 51.1 °F - 35.1 °F 54% 30.05 in 10.0 mi NW 20.7 mph 31.1 mph N/A   Scattered Clouds
3:55 PM 50.0 °F - 36.0 °F 59% 30.05 in 10.0 mi NW 28.8 mph 34.5 mph N/A   Mostly Cloudy
4:55 PM 48.0 °F - 35.1 °F 61% 30.06 in 10.0 mi NW 23.0 mph 33.4 mph N/A   Scattered Clouds
5:55 PM 48.0 °F - 35.1 °F 61% 30.08 in 10.0 mi NW 28.8 mph 35.7 mph N/A   Mostly Cloudy
6:55 PM 48.0 °F - 35.1 °F 61% 30.10 in 10.0 mi NW 25.3 mph 35.7 mph N/A   Partly Cloudy
7:55 PM 48.0 °F - 34.0 °F 58% 30.12 in 10.0 mi NNW 25.3 mph 35.7 mph N/A   Partly Cloudy
8:55 PM 46.9 °F - 33.1 °F 59% 30.14 in 10.0 mi NNW 25.3 mph 32.2 mph N/A   Partly Cloudy
9:55 PM 45.0 °F 39.3 °F 33.1 °F 63% 30.16 in 10.0 mi North 11.5 mph - N/A   Partly Cloudy
10:55 PM 41.0 °F 35.8 °F 33.1 °F 73% 30.17 in 10.0 mi North 8.1 mph - N/A   Clear
11:55 PM 39.9 °F 34.5 °F 30.0 °F 68% 30.18 in 10.0 mi NNE 8.1 mph - N/A   Clear